Regional Weather Roundup
Issued by NWS

Home | Current Version | Previous Version | Graphics & Text | Print | Product List | Glossary On
Versions: 1 2 3 4 5 6 7 8 9 10 11 12 13 14 15 16 17 18 19 20 21 22 23 24 25 26 27
000
ASUS45 KBOU 290110
RWRCO

WEATHER ROUNDUP FOR COLORADO
NATIONAL WEATHER SERVICE DENVER/BOULDER CO
700 PM MDT WED SEP 28 2016

NOTE: "FAIR" INDICATES FEW OR NO CLOUDS BELOW 12000 FEET WITH NO
SIGNIFICANT WEATHER AND/OR OBSTRUCTIONS TO VISIBILITY.

COZ001>005-013-030-031-290200-
...NORTHWEST COLORADO...

CITY           SKY/WX    TMP DP  RH WIND       PRES   REMARKS
CRAIG          FAIR      68  34  28 VRB3      30.25S
HAYDEN         FAIR      73  30  20 CALM      30.28S
MEEKER         FAIR      69  38  32 CALM      30.26S
MOUNT WERNER   NOT AVBL
STEAMBOAT SPGS FAIR      71  33  24 CALM      30.30R
WALDEN           N/A     63  27  25 E10       30.42R
$$

COZ006>008-011-290200-
...WEST CENTRAL VALLEYS...

CITY           SKY/WX    TMP DP  RH WIND       PRES   REMARKS
GRAND JUNCTION FAIR      76  35  22 N8        30.15S
MONTROSE       FAIR      73  39  29 SE6       30.24R
EAGLE          FAIR      72  30  21 CALM      30.29S
RIFLE          FAIR      75  37  25 W8        30.19S
DELTA          NOT AVBL
NUCLA          MOCLDY    73  32  21 SW8       30.29R
$$

COZ017>023-064>068-290200-
...SOUTHWEST COLORADO...

CITY           SKY/WX    TMP DP  RH WIND       PRES   REMARKS
DURANGO        FAIR      71  33  24 N3        30.32S
CORTEZ         MOCLDY    71  41  33 W7        30.27R
PAGOSA SPRINGS FAIR      67  28  23 CALM      30.40S
TELLURIDE      FAIR      63  31  30 CALM      30.50R
WOLF CREEK PAS MOCLDY    46  27  46 MISG      30.72R
$$

COZ009-010-012-014-032>034-037-058>063-290200-
...CENTRAL COLORADO...

CITY           SKY/WX    TMP DP  RH WIND       PRES   REMARKS
ASPEN          MOCLDY    67  32  27 S7        30.36R
BUENA VISTA    FAIR      64  28  25 E7        30.44R
COPPER MTN     FAIR      54  19  26 SE15      30.70R
BERTHOUD PASS  FAIR      39  27  60 E37G44    30.74S
COTTONWOOD PAS FAIR      61  23  23 SE17G23   30.56S
GUNNISON       FAIR      67  23  19 SE9       30.38R HAZE
KREMMLING      FAIR      70  25  18 CALM      30.37R
LEADVILLE      FAIR      57  20  23 SE6       30.55R
MONARCH PASS   FAIR      46  27  46 E5        30.82R
SALIDA         FAIR      69  28  21 SE14G21   30.47S
SUNLIGHT       FAIR      55  30  38 NW6       30.62S
WILKERSON PASS FAIR      50  21  32 S12       30.71R
$$

COZ069>075-290200-
...SAN LUIS VALLEY/SANGRE DE CRISTO MOUNTAINS...

CITY           SKY/WX    TMP DP  RH WIND       PRES   REMARKS
ALAMOSA        FAIR      66  26  22 E10       30.39R
LA VETA PASS   FAIR      54  25  32 MISG      30.61R
SAGUACHE       NOT AVBL
$$

COZ035-036-038>040-290200-
...NORTHERN COLORADO FRONT RANGE...

CITY           SKY/WX    TMP DP  RH WIND       PRES   REMARKS
DENVER INTL AP FAIR      70  30  22 E12       30.29R
DMNS CITY PARK   N/A     74  29  18 E6G16     30.30R
AURORA         PTCLDY    71  31  22 E10       30.31R
FRONT RANGE AP PTCLDY    72  30  21 E10       30.31S
ERIE MUNI ARPT FAIR      73  30  20 E5        30.28S
BOULDER MUN AP FAIR      70  34  26 NW5       30.30R
CENTENNIAL     FAIR      72  28  19 S10       30.31R
BROOMFIELD     PTCLDY    73  30  20 NE7       30.32R
FORT COLLINS   FAIR      72  34  25 E9        30.28R
LONGMONT       FAIR      73  36  25 NE6       30.31R
$$

COZ041-046-047-076>085-087-088-290200-
...PIKES PEAK/PALMER DIVIDE AND SOUTHERN FOOTHILLS...

CITY           SKY/WX    TMP DP  RH WIND       PRES   REMARKS
COLO. SPRINGS  MOCLDY    70  28  21 SE7       30.37R
A. F. ACADEMY  FAIR      68  29  23 S9        30.38R
SCHRIEVER AFB  NOT AVBL
ELLICOTT       NOT AVBL
FALCON         FAIR      62  30  30 S7        30.42S
FORT CARSON    CLEAR     68  29  23 SE7       30.34R
LIMON          FAIR      65  34  31 E9        30.33R
MONUMENT HILL  FAIR      61  28  29 S10       30.43R
TRINIDAD       FAIR      72  28  19 SE8       30.32S
$$

COZ042>045-048>051-090-091-290200-
...NORTHEAST COLORADO...

CITY           SKY/WX    TMP DP  RH WIND       PRES   REMARKS
GREELEY ARPT   FAIR      72  37  28 E8        30.29R
AKRON          FAIR      66  36  32 E9        30.31R
BURLINGTON     FAIR      69  40  34 E13       30.29R
WRAY           FAIR      70  36  28 E8        30.28R
STERLING       FAIR      72  39  30 E5        30.26S
HOLYOKE        FAIR      66  37  34 E8        30.29R
FORT MORGAN    FAIR      67  35  30 NE9       30.29S
$$

COZ086-089-092>099-290200-
...SOUTHEAST COLORADO...

CITY           SKY/WX    TMP DP  RH WIND       PRES   REMARKS
PUEBLO         FAIR      76  32  20 E9        30.26R
LA JUNTA       FAIR      74  35  24 E8        30.25S
LAMAR          FAIR      71  36  27 SE9       30.22R
SPRINGFIELD      N/A     67  36  31 E7        30.27R
$$




USA.gov is the U.S. government's official web portal to all federal, state and local government web resources and services.